Time,TemperatureF,DewpointF,PressureIn,WindDirection,WindDirectionDegrees,WindSpeedMPH,WindSpeedGustMPH,Humidity,HourlyPrecipIn,Conditions,Clouds,dailyrainin,SolarRadiationWatts/m^2,SoftwareType,DateUTC
2013-03-14 00:08:00,56.2,32.0,30.08,East,94,2.0,2.0,40,0.00,,,0.00,0,weatherlink.com 1.10,2013-03-14 07:08:00,
2013-03-14 00:24:00,56.4,32.0,30.07,East,94,1.0,2.0,40,0.00,,,0.00,0,weatherlink.com 1.10,2013-03-14 07:24:00,
2013-03-14 00:39:00,55.5,32.0,30.08,East,94,3.0,3.0,41,0.00,,,0.00,0,weatherlink.com 1.10,2013-03-14 07:39:00,
2013-03-14 00:54:00,53.7,32.0,30.08,East,85,2.0,3.0,44,0.00,,,0.00,0,weatherlink.com 1.10,2013-03-14 07:54:00,
2013-03-14 01:09:00,56.6,32.0,30.08,ENE,69,1.0,4.0,39,0.00,,,0.00,0,weatherlink.com 1.10,2013-03-14 08:09:00,
2013-03-14 01:24:00,53.7,32.0,30.08,SE,142,1.0,2.0,44,0.00,,,0.00,0,weatherlink.com 1.10,2013-03-14 08:24:00,
2013-03-14 01:39:00,52.4,32.0,30.08,SE,142,1.0,1.0,46,0.00,,,0.00,0,weatherlink.com 1.10,2013-03-14 08:39:00,
2013-03-14 01:54:00,51.3,32.0,30.08,SE,142,0.0,1.0,48,0.00,,,0.00,0,weatherlink.com 1.10,2013-03-14 08:54:00,
2013-03-14 02:09:00,50.9,32.0,30.07,SE,142,0.0,2.0,49,0.00,,,0.00,0,weatherlink.com 1.10,2013-03-14 09:09:00,
2013-03-14 02:24:00,50.5,32.0,30.07,SE,132,0.0,2.0,50,0.00,,,0.00,0,weatherlink.com 1.10,2013-03-14 09:24:00,
2013-03-14 02:39:00,50.1,32.0,30.07,SE,132,2.0,2.0,50,0.00,,,0.00,0,weatherlink.com 1.10,2013-03-14 09:39:00,
2013-03-14 02:54:00,49.5,32.0,30.07,East,85,2.0,3.0,52,0.00,,,0.00,0,weatherlink.com 1.10,2013-03-14 09:54:00,
2013-03-14 03:09:00,48.7,32.0,30.06,ESE,111,2.0,4.0,53,0.00,,,0.00,0,weatherlink.com 1.10,2013-03-14 10:09:00,
2013-03-14 03:24:00,49.0,32.0,30.07,East,90,1.0,3.0,52,0.00,,,0.00,0,weatherlink.com 1.10,2013-03-14 10:24:00,
2013-03-14 03:39:00,48.6,32.0,30.07,East,100,3.0,5.0,53,0.00,,,0.00,0,weatherlink.com 1.10,2013-03-14 10:39:00,
2013-03-14 03:54:00,49.1,31.0,30.07,ENE,62,3.0,4.0,50,0.00,,,0.00,0,weatherlink.com 1.10,2013-03-14 10:54:00,
2013-03-14 04:09:00,48.8,31.0,30.07,ENE,62,2.0,2.0,51,0.00,,,0.00,0,weatherlink.com 1.10,2013-03-14 11:09:00,
2013-03-14 04:24:00,47.5,31.0,30.07,ENE,62,1.0,2.0,54,0.00,,,0.00,0,weatherlink.com 1.10,2013-03-14 11:24:00,
2013-03-14 04:39:00,46.7,31.0,30.07,ESE,119,0.0,2.0,55,0.00,,,0.00,0,weatherlink.com 1.10,2013-03-14 11:39:00,
2013-03-14 04:54:00,47.0,32.0,30.07,ESE,119,0.0,2.0,56,0.00,,,0.00,0,weatherlink.com 1.10,2013-03-14 11:54:00,
2013-03-14 05:09:00,48.1,31.0,30.07,NE,46,0.0,4.0,53,0.00,,,0.00,0,weatherlink.com 1.10,2013-03-14 12:09:00,
2013-03-14 05:24:00,46.7,32.0,30.07,NE,46,0.0,3.0,56,0.00,,,0.00,0,weatherlink.com 1.10,2013-03-14 12:24:00,
2013-03-14 05:39:00,46.1,31.0,30.07,NE,46,0.0,1.0,57,0.00,,,0.00,0,weatherlink.com 1.10,2013-03-14 12:39:00,
2013-03-14 05:54:00,45.3,32.0,30.08,ENE,77,1.0,2.0,59,0.00,,,0.00,0,weatherlink.com 1.10,2013-03-14 12:54:00,
2013-03-14 06:09:00,45.1,32.0,30.08,ENE,59,1.0,2.0,60,0.00,,,0.00,0,weatherlink.com 1.10,2013-03-14 13:09:00,
2013-03-14 06:24:00,45.0,31.0,30.08,ENE,73,0.0,4.0,59,0.00,,,0.00,0,weatherlink.com 1.10,2013-03-14 13:24:00,
2013-03-14 06:39:00,44.8,31.0,30.08,ENE,71,2.0,3.0,60,0.00,,,0.00,9,weatherlink.com 1.10,2013-03-14 13:39:00,
2013-03-14 06:54:00,45.6,31.0,30.09,ENE,78,1.0,4.0,58,0.00,,,0.00,18,weatherlink.com 1.10,2013-03-14 13:54:00,
2013-03-14 07:09:00,48.7,32.0,30.10,ENE,63,2.0,4.0,53,0.00,,,0.00,51,weatherlink.com 1.10,2013-03-14 14:09:00,
2013-03-14 07:24:00,52.4,32.0,30.10,West,281,2.0,3.0,47,0.00,,,0.00,105,weatherlink.com 1.10,2013-03-14 14:24:00,
2013-03-14 07:40:00,54.1,33.0,30.11,NE,34,1.0,2.0,45,0.00,,,0.00,172,weatherlink.com 1.10,2013-03-14 14:40:00,
2013-03-14 07:55:00,56.5,33.0,30.11,NE,36,0.0,3.0,42,0.00,,,0.00,230,weatherlink.com 1.10,2013-03-14 14:55:00,
2013-03-14 08:10:00,58.5,33.0,30.12,NE,37,1.0,2.0,39,0.00,,,0.00,257,weatherlink.com 1.10,2013-03-14 15:10:00,
2013-03-14 08:25:00,61.1,34.0,30.12,ESE,111,0.0,3.0,36,0.00,,,0.00,341,weatherlink.com 1.10,2013-03-14 15:25:00,
2013-03-14 08:40:00,63.9,33.0,30.11,SE,138,1.0,3.0,31,0.00,,,0.00,397,weatherlink.com 1.10,2013-03-14 15:40:00,
2013-03-14 08:55:00,69.1,34.0,30.12,SSW,206,0.0,3.0,27,0.00,,,0.00,452,weatherlink.com 1.10,2013-03-14 15:55:00,
2013-03-14 09:10:00,72.0,33.0,30.12,SSW,209,1.0,2.0,24,0.00,,,0.00,499,weatherlink.com 1.10,2013-03-14 16:10:00,
2013-03-14 09:25:00,76.2,32.0,30.12,WSW,238,1.0,4.0,20,0.00,,,0.00,550,weatherlink.com 1.10,2013-03-14 16:25:00,
2013-03-14 09:40:00,79.0,32.0,30.11,WSW,255,1.0,4.0,18,0.00,,,0.00,598,weatherlink.com 1.10,2013-03-14 16:40:00,
2013-03-14 09:55:00,82.1,27.0,30.11,SSW,211,4.0,5.0,13,0.00,,,0.00,642,weatherlink.com 1.10,2013-03-14 16:55:00,
2013-03-14 10:10:00,84.1,26.0,30.11,SSW,198,3.0,5.0,12,0.00,,,0.00,686,weatherlink.com 1.10,2013-03-14 17:10:00,
2013-03-14 10:25:00,85.1,23.0,30.11,South,183,4.0,5.0,10,0.00,,,0.00,722,weatherlink.com 1.10,2013-03-14 17:25:00,
2013-03-14 10:40:00,85.6,23.0,30.10,SW,219,5.0,6.0,10,0.00,,,0.00,756,weatherlink.com 1.10,2013-03-14 17:40:00,
2013-03-14 10:55:00,86.6,21.0,30.10,NW,311,3.0,5.0,9,0.00,,,0.00,782,weatherlink.com 1.10,2013-03-14 17:55:00,
2013-03-14 11:10:00,86.7,15.0,30.09,NNE,15,8.0,14.0,7,0.00,,,0.00,809,weatherlink.com 1.10,2013-03-14 18:10:00,
2013-03-14 11:26:00,87.6,16.0,30.09,NNE,24,7.0,15.0,7,0.00,,,0.00,833,weatherlink.com 1.10,2013-03-14 18:26:00,
2013-03-14 11:41:00,87.7,16.0,30.08,North,5,9.0,16.0,7,0.00,,,0.00,851,weatherlink.com 1.10,2013-03-14 18:41:00,
2013-03-14 11:56:00,87.9,16.0,30.08,East,79,9.0,16.0,7,0.00,,,0.00,865,weatherlink.com 1.10,2013-03-14 18:56:00,
2013-03-14 12:26:00,87.9,13.0,30.06,NNE,15,8.0,13.0,6,0.00,,,0.00,881,weatherlink.com 1.10,2013-03-14 19:26:00,
2013-03-14 12:41:00,88.4,13.0,30.05,ENE,59,7.0,13.0,6,0.00,,,0.00,879,weatherlink.com 1.10,2013-03-14 19:41:00,
2013-03-14 12:56:00,89.5,14.0,30.05,ENE,69,5.0,12.0,6,0.00,,,0.00,875,weatherlink.com 1.10,2013-03-14 19:56:00,
2013-03-14 13:11:00,89.2,14.0,30.04,ENE,73,7.0,13.0,6,0.00,,,0.00,870,weatherlink.com 1.10,2013-03-14 20:11:00,
2013-03-14 13:56:00,89.6,14.0,30.02,North,355,1.0,7.0,6,0.00,,,0.00,821,weatherlink.com 1.10,2013-03-14 20:56:00,
2013-03-14 14:11:00,89.0,14.0,30.01,ENE,65,0.0,10.0,6,0.00,,,0.00,796,weatherlink.com 1.10,2013-03-14 21:11:00,
2013-03-14 14:26:00,90.3,10.0,30.00,ENE,61,0.0,9.0,5,0.00,,,0.00,766,weatherlink.com 1.10,2013-03-14 21:26:00,
2013-03-14 14:41:00,90.6,15.0,30.00,WNW,303,3.0,8.0,6,0.00,,,0.00,737,weatherlink.com 1.10,2013-03-14 21:41:00,
2013-03-14 14:56:00,90.7,11.0,29.99,West,279,2.0,6.0,5,0.00,,,0.00,701,weatherlink.com 1.10,2013-03-14 21:56:00,
2013-03-14 15:11:00,91.1,15.0,29.99,SSW,192,2.0,5.0,6,0.00,,,0.00,661,weatherlink.com 1.10,2013-03-14 22:11:00,
2013-03-14 15:26:00,90.1,14.0,29.98,South,188,0.0,6.0,6,0.00,,,0.00,617,weatherlink.com 1.10,2013-03-14 22:26:00,
2013-03-14 15:41:00,91.1,11.0,29.98,WSW,240,6.0,8.0,5,0.00,,,0.00,573,weatherlink.com 1.10,2013-03-14 22:41:00,
2013-03-14 16:11:00,90.7,11.0,29.97,WSW,254,7.0,11.0,5,0.00,,,0.00,476,weatherlink.com 1.10,2013-03-14 23:11:00,
2013-03-14 16:26:00,90.4,6.0,29.97,NW,304,6.0,10.0,4,0.00,,,0.00,422,weatherlink.com 1.10,2013-03-14 23:26:00,
2013-03-14 16:41:00,90.0,10.0,29.97,West,273,6.0,9.0,5,0.00,,,0.00,366,weatherlink.com 1.10,2013-03-14 23:41:00,
2013-03-14 16:56:00,89.6,10.0,29.96,WSW,253,6.0,7.0,5,0.00,,,0.00,311,weatherlink.com 1.10,2013-03-14 23:56:00,
2013-03-14 17:11:00,89.5,10.0,29.97,NNW,338,1.0,6.0,5,0.00,,,0.00,248,weatherlink.com 1.10,2013-03-15 00:11:00,
2013-03-14 17:26:00,88.7,17.0,29.97,WNW,283,5.0,10.0,7,0.00,,,0.00,183,weatherlink.com 1.10,2013-03-15 00:26:00,
2013-03-14 17:41:00,87.7,16.0,29.97,WNW,291,7.0,13.0,7,0.00,,,0.00,114,weatherlink.com 1.10,2013-03-15 00:41:00,
2013-03-14 17:56:00,86.8,19.0,29.97,West,281,4.0,11.0,8,0.00,,,0.00,58,weatherlink.com 1.10,2013-03-15 00:56:00,
2013-03-14 18:11:00,85.9,18.0,29.97,NW,306,5.0,8.0,8,0.00,,,0.00,19,weatherlink.com 1.10,2013-03-15 01:11:00,
2013-03-14 18:26:00,84.3,19.0,29.97,WNW,284,3.0,7.0,9,0.00,,,0.00,9,weatherlink.com 1.10,2013-03-15 01:26:00,
2013-03-14 18:41:00,82.0,22.0,29.97,WNW,301,1.0,4.0,11,0.00,,,0.00,0,weatherlink.com 1.10,2013-03-15 01:41:00,
2013-03-14 18:56:00,79.6,25.0,29.97,NW,309,2.0,3.0,13,0.00,,,0.00,0,weatherlink.com 1.10,2013-03-15 01:56:00,
2013-03-14 19:11:00,78.2,27.0,29.97,WNW,290,3.0,7.0,15,0.00,,,0.00,0,weatherlink.com 1.10,2013-03-15 02:11:00,
2013-03-14 19:26:00,78.5,27.0,29.97,NW,318,2.0,4.0,15,0.00,,,0.00,0,weatherlink.com 1.10,2013-03-15 02:26:00,
2013-03-14 19:41:00,75.2,29.0,29.98,NW,318,1.0,2.0,18,0.00,,,0.00,0,weatherlink.com 1.10,2013-03-15 02:41:00,
2013-03-14 19:56:00,75.1,27.0,29.98,ENE,61,1.0,5.0,17,0.00,,,0.00,0,weatherlink.com 1.10,2013-03-15 02:56:00,
2013-03-14 20:11:00,71.9,27.0,29.98,East,101,1.0,4.0,19,0.00,,,0.00,0,weatherlink.com 1.10,2013-03-15 03:11:00,
2013-03-14 20:26:00,71.5,26.0,29.99,SE,126,2.0,4.0,18,0.00,,,0.00,0,weatherlink.com 1.10,2013-03-15 03:26:00,
2013-03-14 20:41:00,71.0,22.0,29.99,SE,136,4.0,4.0,16,0.00,,,0.00,0,weatherlink.com 1.10,2013-03-15 03:41:00,
2013-03-14 20:56:00,71.1,21.0,29.99,East,94,1.0,4.0,15,0.00,,,0.00,0,weatherlink.com 1.10,2013-03-15 03:56:00,
2013-03-14 21:11:00,67.3,24.0,30.00,ENE,78,2.0,4.0,19,0.00,,,0.00,0,weatherlink.com 1.10,2013-03-15 04:11:00,
2013-03-14 21:26:00,67.4,22.0,30.00,ENE,76,4.0,6.0,18,0.00,,,0.00,0,weatherlink.com 1.10,2013-03-15 04:26:00,
2013-03-14 21:56:00,64.5,25.0,30.01,SSE,162,1.0,2.0,22,0.00,,,0.00,0,weatherlink.com 1.10,2013-03-15 04:56:00,
2013-03-14 22:11:00,65.3,26.0,30.02,SSE,152,0.0,1.0,23,0.00,,,0.00,0,weatherlink.com 1.10,2013-03-15 05:11:00,
2013-03-14 22:26:00,66.3,28.0,30.02,SSE,159,2.0,2.0,24,0.00,,,0.00,0,weatherlink.com 1.10,2013-03-15 05:26:00,
2013-03-14 22:41:00,66.9,29.0,30.03,NW,320,2.0,4.0,24,0.00,,,0.00,0,weatherlink.com 1.10,2013-03-15 05:41:00,
2013-03-14 22:56:00,64.4,30.0,30.02,NW,320,0.0,1.0,27,0.00,,,0.00,0,weatherlink.com 1.10,2013-03-15 05:56:00,
2013-03-14 23:26:00,59.4,30.0,30.03,NW,324,1.0,2.0,33,0.00,,,0.00,0,weatherlink.com 1.10,2013-03-15 06:26:00,
2013-03-14 23:41:00,59.0,30.0,30.03,ENE,68,1.0,3.0,34,0.00,,,0.00,0,weatherlink.com 1.10,2013-03-15 06:41:00,
2013-03-14 23:56:00,58.6,29.0,30.02,ENE,68,2.0,3.0,32,0.00,,,0.00,0,weatherlink.com 1.10,2013-03-15 06:56:00,